Temp
-8 -8 -8 -8 -9 -9 -9 -10 -10 -10 -11 -11 -11 -12 -11 -12 -12 -12 -12 -12 -12 -12 -12 -12 -11 -11 -11 -11 -11 -11 -11 -11 -11 -11 -11 -11 -10 -10 -10 -10 -10 -11 -10 -10
-8 -8 -9 -9 -9 -10 -10 -11 -11 -12 -12 -12 -12 -12 -13 -13 -13 -13 -13 -13 -13 -13 -13 -13 -13 -13 -13 -12 -12 -12 -12 -12 -12 -12 -12 -11 -11 -11 -11 -11 -11 -12 -12 -11
-9 -9 -9 -10 -10 -10 -11 -12 -12 -12 -12 -12 -12 -13 -13 -13 -13 -13 -13 -13 -13 -13 -13 -13 -13 -13 -13 -13 -13 -13 -13 -12 -12 -12 -12 -12 -12 -12 -12 -12 -12 -12 -12 -12
-9 -10 -10 -10 -11 -11 -12 -12 -12 -12 -12 -13 -13 -14 -15 -13 -14 -14 -14 -14 -14 -14 -14 -14 -14 -14 -14 -14 -13 -13 -13 -13 -12 -12 -12 -12 -12 -12 -12 -12 -13 -12 -12 -12
-10 -10 -10 -11 -11 -12 -12 -12 -12 -12 -12 -13 -13 -14 -16 -14 -14 -14 -14 -14 -14 -14 -14 -14 -14 -14 -14 -14 -14 -14 -14 -13 -13 -13 -13 -12 -12 -12 -12 -12 -12 -12 -13 -12
-10 -10 -10 -11 -11 -12 -12 -12 -13 -13 -13 -13 -13 -14 -16 -16 -14 -14 -14 -15 -15 -15 -15 -15 -14 -14 -14 -14 -14 -14 -14 -14 -13 -13 -13 -13 -12 -12 -12 -12 -12 -12 -13 -12
-10 -11 -11 -11 -11 -12 -12 -13 -13 -13 -14 -15 -14 -14 -16 -15 -14 -15 -15 -15 -15 -15 -15 -15 -14 -15 -15 -14 -15 -14 -14 -14 -13 -13 -13 -12 -12 -12 -12 -12 -12 -12 -12 -12
-11 -11 -11 -12 -12 -12 -13 -13 -13 -14 -14 -14 -14 -15 -15 -14 -15 -15 -15 -15 -15 -15 -15 -15 -15 -15 -15 -15 -14 -14 -14 -14 -14 -13 -13 -12 -12 -12 -11 -11 -12 -12 -12 -12
-11 -11 -12 -12 -12 -13 -13 -13 -13 -14 -14 -14 -16 -15 -15 -15 -14 -15 -15 -15 -15 -15 -14 -14 -15 -14 -14 -14 -14 -14 -13 -13 -13 -13 -13 -13 -12 -12 -11 -11 -11 -11 -12 -12
-11 -11 -12 -12 -13 -13 -13 -13 -14 -14 -14 -14 -16 -15 -15 -15 -15 -15 -15 -15 -15 -15 -15 -14 -14 -14 -14 -14 -14 -14 -13 -13 -13 -13 -13 -13 -12 -12 -11 -12 -12 -12 -12 -12
-12 -12 -12 -13 -13 -13 -13 -14 -14 -14 -15 -15 -15 -17 -15 -15 -15 -15 -15 -15 -15 -15 -15 -15 -15 -14 -14 -14 -14 -14 -13 -13 -13 -13 -13 -12 -12 -12 -12 -12 -12 -12 -12 -12
-12 -12 -12 -13 -13 -14 -14 -14 -14 -14 -15 -15 -15 -15 -15 -15 -15 -15 -15 -15 -15 -15 -15 -15 -15 -15 -14 -14 -14 -14 -14 -13 -13 -12 -12 -12 -12 -13 -13 -12 -13 -12 -12 -12
-13 -13 -13 -13 -14 -14 -14 -14 -14 -15 -15 -15 -15 -16 -16 -15 -15 -15 -15 -15 -15 -15 -15 -15 -15 -15 -15 -14 -14 -14 -14 -13 -13 -13 -13 -13 -13 -13 -13 -13 -13 -12 -12 -13
-13 -13 -14 -14 -14 -14 -14 -14 -15 -15 -15 -15 -16 -15 -16 -16 -16 -15 -15 -15 -15 -15 -15 -15 -15 -15 -15 -15 -15 -14 -14 -13 -13 -13 -13 -13 -13 -13 -13 -12 -12 -12 -12 -13
-13 -14 -14 -14 -14 -15 -15 -15 -15 -15 -15 -16 -16 -16 -16 -16 -15 -15 -15 -15 -15 -15 -15 -15 -15 -15 -15 -15 -15 -14 -14 -13 -13 -13 -13 -13 -13 -13 -13 -12 -12 -12 -13 -14
-14 -14 -14 -14 -14 -15 -15 -15 -15 -16 -16 -16 -16 -16 -16 -16 -15 -15 -15 -15 -15 -15 -15 -15 -15 -15 -15 -15 -14 -14 -13 -13 -13 -12 -12 -13 -13 -13 -13 -13 -12 -13 -14 -15
-14 -14 -15 -15 -15 -15 -15 -15 -16 -16 -16 -16 -16 -16 -16 -16 -15 -16 -15 -15 -15 -15 -15 -15 -15 -15 -15 -14 -14 -14 -13 -13 -12 -12 -13 -13 -13 -13 -13 -13 -13 -14 -15 -15
-15 -15 -15 -15 -15 -15 -15 -15 -16 -16 -16 -16 -16 -16 -16 -16 -15 -15 -15 -15 -15 -15 -15 -15 -15 -15 -15 -14 -14 -14 -13 -13 -13 -13 -13 -13 -13 -14 -13 -13 -13 -14 -14 -15
-15 -15 -15 -15 -16 -16 -16 -16 -16 -16 -16 -16 -16 -16 -16 -16 -15 -16 -15 -15 -15 -15 -15 -15 -14 -15 -15 -14 -14 -14 -14 -13 -14 -14 -13 -14 -14 -15 -14 -13 -14 -14 -14 -14
-16 -16 -16 -16 -16 -16 -16 -16 -16 -16 -16 -16 -16 -16 -16 -16 -15 -15 -15 -15 -15 -15 -15 -14 -14 -14 -15 -14 -14 -14 -14 -14 -14 -13 -14 -15 -14 -14 -14 -14 -14 -14 -14 -15
-17 -17 -17 -17 -16 -16 -16 -16 -16 -16 -16 -16 -16 -16 -16 -16 -15 -15 -14 -14 -15 -15 -15 -15 -14 -15 -14 -15 -14 -14 -14 -13 -13 -13 -14 -14 -14 -14 -14 -14 -15 -15 -14 -14
-17 -17 -18 -17 -17 -16 -16 -16 -16 -16 -16 -16 -16 -16 -16 -16 -15 -15 -14 -14 -15 -15 -15 -15 -14 -15 -14 -14 -14 -14 -13 -13 -13 -14 -14 -14 -15 -15 -15 -15 -15 -14 -14 -14
-18 -18 -18 -17 -17 -17 -17 -17 -16 -16 -16 -16 -16 -16 -16 -16 -15 -15 -14 -14 -14 -15 -15 -15 -15 -14 -14 -14 -13 -13 -13 -13 -13 -13 -14 -15 -15 -15 -15 -15 -15 -14 -14 -14
-18 -18 -19 -18 -18 -17 -17 -17 -16 -16 -16 -16 -16 -16 -16 -16 -15 -15 -15 -14 -14 -15 -15 -15 -14 -14 -14 -14 -13 -13 -13 -13 -13 -13 -14 -14 -14 -14 -14 -15 -13 -14 -14 -14
-18 -18 -19 -18 -18 -18 -17 -17 -16 -17 -17 -17 -17 -17 -16 -16 -15 -15 -15 -14 -15 -15 -15 -15 -14 -14 -14 -14 -13 -13 -13 -12 -13 -13 -13 -13 -13 -14 -14 -14 -14 -14 -13 -14
-19 -19 -18 -18 -18 -18 -17 -16 -17 -17 -17 -17 -17 -17 -16 -16 -16 -15 -15 -15 -15 -15 -15 -15 -14 -14 -14 -14 -13 -13 -13 -13 -13 -12 -13 -13 -13 -13 -14 -14 -14 -14 -13 -13
Height
5831 5829 5827 5825 5824 5822 5820 5818 5815 5810 5808 5806 5803 5802 5798 5797 5795 5793 5790 5788 5787 5785 5783 5782 5781 5779 5779 5779 5779 5778 5778 5778 5778 5778 5778 5777 5778 5779 5780 5782 5785 5786 5788 5789
5827 5824 5822 5819 5816 5815 5813 5811 5809 5806 5803 5801 5799 5796 5793 5790 5788 5785 5784 5781 5779 5776 5774 5773 5771 5769 5768 5767 5766 5766 5766 5765 5764 5765 5765 5766 5765 5766 5767 5768 5770 5774 5775 5777
5821 5819 5817 5815 5812 5810 5808 5807 5804 5802 5799 5795 5795 5791 5788 5784 5782 5779 5777 5775 5772 5770 5768 5765 5762 5760 5758 5756 5755 5753 5753 5752 5751 5751 5751 5751 5752 5753 5753 5754 5756 5760 5762 5764
5817 5815 5812 5811 5808 5806 5804 5802 5800 5798 5795 5793 5788 5788 5781 5778 5776 5773 5771 5768 5766 5763 5761 5758 5755 5751 5748 5746 5744 5742 5741 5740 5739 5738 5739 5738 5738 5739 5740 5742 5743 5746 5749 5752
5814 5811 5809 5807 5805 5802 5800 5798 5796 5793 5790 5788 5783 5782 5777 5773 5769 5767 5765 5762 5759 5756 5753 5750 5747 5744 5740 5737 5734 5732 5730 5728 5727 5726 5725 5725 5725 5725 5726 5728 5731 5733 5736 5739
5810 5807 5805 5803 5801 5799 5797 5795 5792 5790 5787 5783 5780 5778 5778 5768 5766 5762 5758 5755 5753 5750 5747 5743 5739 5735 5731 5728 5725 5722 5720 5718 5717 5715 5714 5713 5713 5713 5714 5715 5716 5718 5721 5725
5807 5804 5802 5801 5799 5796 5794 5791 5789 5786 5782 5781 5775 5772 5769 5763 5761 5758 5754 5751 5748 5744 5740 5736 5731 5726 5722 5718 5715 5713 5710 5708 5706 5705 5703 5702 5701 5700 5700 5700 5701 5703 5707 5710
5802 5800 5798 5796 5794 5792 5790 5788 5785 5782 5779 5777 5769 5767 5760 5759 5755 5752 5749 5746 5742 5738 5734 5729 5724 5719 5714 5710 5705 5703 5700 5699 5696 5694 5693 5691 5689 5686 5686 5686 5687 5689 5692 5695
5797 5795 5793 5792 5790 5789 5786 5784 5781 5777 5774 5770 5767 5761 5755 5754 5751 5747 5744 5741 5737 5732 5728 5724 5719 5713 5707 5701 5695 5692 5690 5688 5685 5684 5681 5679 5675 5673 5671 5671 5672 5673 5676 5679
5792 5791 5790 5789 5786 5784 5782 5779 5775 5771 5768 5766 5765 5757 5753 5749 5747 5743 5740 5736 5732 5727 5722 5717 5712 5706 5700 5693 5687 5682 5679 5677 5675 5672 5669 5666 5662 5659 5657 5656 5656 5657 5659 5662
5787 5785 5785 5783 5781 5778 5777 5774 5772 5768 5765 5760 5758 5756 5747 5744 5742 5738 5734 5731 5726 5721 5716 5711 5705 5699 5693 5687 5681 5675 5671 5666 5663 5660 5657 5654 5649 5645 5642 5640 5639 5641 5642 5646
5782 5780 5778 5778 5776 5774 5772 5770 5767 5762 5758 5754 5751 5750 5743 5740 5736 5731 5728 5723 5719 5714 5708 5702 5697 5692 5687 5680 5674 5667 5662 5656 5650 5647 5644 5640 5635 5631 5628 5625 5624 5624 5626 5629
5776 5775 5774 5772 5772 5769 5766 5762 5761 5757 5754 5750 5746 5744 5736 5734 5730 5725 5720 5717 5712 5707 5701 5696 5691 5685 5679 5673 5666 5659 5652 5645 5639 5633 5630 5626 5621 5616 5612 5608 5606 5606 5608 5611
5770 5770 5768 5768 5766 5763 5760 5756 5754 5751 5748 5745 5741 5738 5733 5728 5723 5719 5715 5711 5706 5699 5693 5688 5682 5676 5669 5663 5657 5650 5643 5635 5627 5621 5616 5612 5608 5604 5598 5592 5590 5590 5591 5593
5763 5764 5761 5760 5758 5757 5755 5751 5747 5745 5742 5739 5736 5732 5728 5722 5717 5713 5708 5704 5699 5693 5687 5680 5673 5667 5661 5654 5647 5639 5631 5622 5614 5607 5602 5598 5594 5590 5584 5579 5575 5574 5574 5576
5756 5756 5755 5754 5750 5750 5748 5745 5742 5740 5736 5732 5729 5726 5721 5716 5711 5707 5703 5698 5693 5687 5680 5673 5666 5659 5653 5645 5637 5629 5619 5608 5599 5593 5589 5586 5582 5577 5573 5569 5566 5565 5565 5567
5749 5748 5747 5748 5744 5742 5741 5739 5736 5734 5730 5727 5724 5720 5716 5712 5707 5701 5697 5692 5686 5680 5673 5666 5659 5652 5644 5635 5626 5617 5605 5597 5589 5584 5579 5575 5572 5570 5567 5565 5563 5563 5563 5564
5741 5739 5738 5740 5738 5737 5735 5733 5730 5728 5725 5722 5719 5714 5710 5707 5703 5696 5691 5686 5681 5675 5669 5661 5654 5646 5637 5627 5618 5606 5595 5587 5581 5575 5570 5566 5563 5563 5564 5563 5563 5564 5564 5565
5732 5731 5730 5731 5731 5731 5729 5727 5726 5723 5721 5717 5714 5710 5705 5702 5699 5693 5688 5682 5677 5671 5664 5655 5646 5638 5629 5619 5607 5596 5588 5581 5574 5569 5565 5561 5560 5561 5562 5563 5565 5568 5569 5570
5723 5723 5724 5724 5724 5721 5721 5722 5720 5718 5715 5712 5709 5705 5701 5697 5694 5690 5685 5680 5675 5668 5658 5650 5642 5632 5622 5612 5600 5592 5585 5578 5571 5565 5561 5559 5559 5561 5562 5564 5566 5570 5572 5575
5714 5713 5715 5715 5714 5714 5711 5713 5713 5712 5712 5704 5701 5698 5695 5691 5688 5684 5680 5675 5670 5663 5654 5646 5636 5626 5616 5605 5595 5587 5580 5574 5567 5562 5559 5556 5559 5561 5563 5565 5568 5571 5574 5577
5705 5705 5706 5707 5706 5705 5706 5705 5706 5706 5702 5698 5696 5692 5689 5685 5682 5679 5675 5670 5666 5660 5652 5644 5633 5623 5611 5599 5590 5582 5576 5571 5568 5563 5560 5560 5561 5563 5564 5567 5570 5572 5575 5578
5695 5696 5697 5699 5698 5696 5696 5696 5698 5697 5695 5692 5689 5686 5683 5680 5676 5674 5671 5666 5663 5656 5649 5640 5631 5621 5609 5597 5587 5579 5575 5572 5570 5567 5565 5564 5564 5565 5567 5570 5573 5576 5579 5583
5684 5685 5688 5688 5690 5687 5689 5688 5688 5687 5686 5684 5681 5679 5677 5674 5671 5669 5666 5662 5659 5653 5647 5639 5630 5620 5608 5597 5588 5580 5578 5576 5573 5570 5569 5569 5569 5571 5573 5575 5578 5582 5584 5587
5675 5677 5678 5678 5678 5678 5682 5679 5677 5678 5677 5676 5674 5672 5670 5668 5665 5664 5661 5658 5655 5650 5645 5638 5630 5620 5610 5600 5591 5586 5582 5579 5577 5575 5575 5575 5575 5578 5580 5581 5582 5585 5588 5590
5667 5668 5668 5668 5668 5673 5672 5670 5669 5670 5668 5666 5666 5665 5663 5662 5660 5658 5656 5652 5652 5647 5643 5637 5629 5620 5612 5604 5596 5589 5584 5582 5582 5580 5580 5581 5583 5583 5585 5587 5588 5590 5592 5594
Wind_Speed
22 24 25 26 26 26 26 25 26 30 31 29 30 29 34 29 32 33 35 37 38 38 40 41 43 44 44 44 46 47 47 48 49 50 51 52 53 52 52 52 49 47 46 46
22 22 22 22 21 21 20 20 20 23 24 24 24 25 27 27 28 29 29 30 31 33 36 37 39 41 43 44 45 46 47 49 50 51 52 53 55 55 55 54 52 46 45 44
22 20 18 18 19 19 18 17 18 20 23 24 22 23 22 26 27 28 29 30 31 32 34 36 39 41 42 44 45 46 47 48 50 51 53 54 55 55 54 54 53 50 47 47
20 19 18 19 19 18 18 17 17 19 21 20 25 19 25 25 25 26 28 29 30 31 32 33 34 35 38 39 41 42 43 44 46 48 50 52 54 56 55 52 53 53 52 50
20 18 18 18 18 17 16 17 18 19 20 22 25 22 24 25 28 28 28 29 29 28 27 27 28 32 35 37 38 39 39 39 41 43 45 47 50 52 54 54 54 56 55 54
18 18 18 18 18 16 16 16 16 18 20 21 20 21 17 21 25 28 28 27 27 26 28 33 36 38 38 38 38 38 40 42 44 45 45 46 47 49 52 56 56 54 55 54
17 16 17 17 17 17 17 16 18 20 19 13 21 19 20 26 27 26 26 26 27 30 34 38 38 38 39 39 40 39 40 40 41 42 44 45 47 50 52 54 58 60 58 56
15 14 15 16 17 18 18 19 19 19 19 14 23 20 27 25 27 26 24 25 30 32 34 36 35 35 34 38 41 42 43 42 42 42 44 47 51 52 54 54 57 58 59 58
13 14 14 14 15 16 18 21 22 22 20 18 14 22 28 24 26 26 25 26 29 31 32 34 32 32 34 36 39 42 43 45 46 45 46 47 49 48 50 54 56 57 59 60
14 14 16 16 16 17 18 20 24 24 22 19 13 20 25 27 25 24 24 25 27 29 31 32 32 33 34 36 34 35 40 43 44 47 47 47 48 51 54 55 55 55 57 57
15 16 17 18 17 21 23 22 21 22 22 23 19 12 26 24 24 25 24 25 29 31 32 33 33 36 36 37 35 32 34 40 45 46 48 47 49 49 51 53 56 58 60 61
16 17 18 19 19 21 23 25 24 25 23 23 21 18 20 24 24 27 28 28 32 33 34 35 36 37 37 38 38 37 37 37 39 43 46 48 48 49 50 50 51 53 56 58
19 18 18 20 21 21 23 26 23 24 23 21 24 20 25 26 28 31 32 33 35 36 35 36 37 37 38 37 39 40 41 43 42 42 42 44 44 45 44 46 46 47 44 45
21 19 20 20 22 24 25 26 25 23 23 23 22 21 24 29 31 32 32 32 35 36 37 37 37 36 37 39 40 41 44 47 47 43 42 42 40 39 41 36 34 37 43 45
24 21 22 22 24 21 23 24 24 24 26 22 22 23 28 29 29 30 31 32 34 35 36 37 38 39 39 40 41 44 47 50 47 42 39 40 39 38 29 32 30 30 32 33
25 25 25 22 25 23 21 23 23 22 25 27 25 27 30 31 32 32 33 33 34 35 37 38 40 39 40 40 41 44 49 48 44 37 34 33 34 25 25 23 22 19 15 17
27 26 26 23 23 25 23 21 24 22 25 27 26 28 31 31 33 34 34 35 35 35 38 39 40 40 41 41 41 48 46 40 32 32 32 31 26 19 17 16 13 10 10 16
29 27 29 25 23 23 22 22 24 24 24 28 27 30 32 33 33 35 33 33 33 34 36 39 39 39 41 41 46 48 40 35 32 27 24 23 20 12 9 5 5 11 12 14
29 28 29 26 24 23 23 21 22 25 23 27 27 31 32 32 31 33 31 31 32 34 37 40 41 41 41 45 50 40 30 31 24 19 19 9 4 8 8 8 10 12 13 16
31 30 29 28 26 28 27 19 21 23 26 24 24 28 30 30 30 28 26 28 30 35 39 42 43 43 44 48 39 33 26 29 16 20 15 4 1 13 12 15 14 20 18 18
32 30 29 29 30 29 29 24 23 24 25 28 25 26 27 28 30 27 27 29 32 37 41 43 45 45 46 49 40 30 29 27 14 14 9 6 4 11 12 15 18 17 17 23
37 35 30 29 32 34 27 28 24 24 25 27 26 26 26 28 29 29 28 31 33 36 41 43 45 45 48 42 38 35 25 14 12 14 4 5 9 6 11 18 19 20 25 28
39 32 30 29 32 33 32 31 27 28 29 30 29 28 27 28 30 30 29 31 34 37 41 44 45 43 49 41 37 27 12 7 11 14 8 7 10 11 12 21 17 23 26 28
35 33 30 31 31 35 33 33 31 33 33 32 30 27 26 26 29 30 30 31 33 36 40 43 42 41 39 39 36 23 8 12 15 12 9 13 18 12 11 15 16 24 25 24
34 29 29 32 34 36 32 32 34 36 36 32 28 27 27 26 26 27 28 31 31 35 38 41 39 37 36 33 29 22 14 12 15 4 15 14 17 15 10 12 22 18 23 25
27 28 29 32 35 30 30 31 35 34 33 30 26 26 25 25 24 24 27 30 29 33 35 37 35 34 34 30 24 23 19 10 8 11 8 6 9 8 12 15 14 17 18 14
Wind_Direction
311 308 306 304 302 297 294 291 289 288 289 291 289 290 290 287 284 281 280 279 279 277 273 271 270 269 268 267 267 268 268 267 267 266 266 267 268 266 265 262 259 259 256 256
320 317 316 314 309 305 302 299 297 294 297 297 295 297 292 290 287 285 285 284 282 281 280 280 278 276 274 272 270 268 267 266 266 265 265 264 264 264 264 264 261 258 259 258
326 325 322 319 314 311 311 309 305 298 301 300 298 295 288 286 285 285 285 283 283 282 281 280 280 278 276 274 273 271 269 267 266 265 265 265 265 265 262 261 260 258 255 259
330 328 326 324 321 320 317 312 307 305 304 300 305 294 297 292 287 284 286 286 286 286 286 286 285 285 283 279 277 275 274 272 270 267 265 264 264 263 261 259 258 258 259 260
330 326 328 327 327 326 320 318 316 317 318 314 303 300 288 285 289 289 288 290 293 294 294 291 289 285 282 279 275 274 273 271 270 269 266 263 262 261 259 258 256 256 257 258
326 327 326 329 327 325 319 316 316 319 322 318 311 295 278 286 294 298 298 298 301 303 304 306 303 299 296 285 281 278 276 275 273 271 270 267 265 261 258 256 255 254 253 250
325 324 321 323 324 322 322 317 320 330 326 307 311 297 262 293 299 302 298 296 301 304 303 305 306 299 292 288 282 282 281 281 279 278 274 269 268 267 261 258 255 253 253 251
319 319 318 321 324 324 323 319 316 318 315 298 306 295 284 298 304 300 297 300 306 305 307 312 310 307 301 294 289 285 282 283 284 286 283 281 278 271 266 265 260 256 249 248
310 311 313 318 315 320 324 322 317 313 310 312 293 291 287 294 303 302 296 299 306 306 305 305 308 309 309 307 293 286 284 284 285 286 287 289 282 274 269 265 263 259 255 254
301 304 308 309 310 320 324 326 323 319 314 309 294 292 284 295 299 300 297 297 307 312 308 306 311 313 316 319 314 298 289 285 283 282 285 290 288 277 271 270 266 260 255 253
297 302 306 308 310 317 318 319 321 316 312 305 302 292 298 301 298 295 299 305 312 314 314 312 311 311 313 318 319 319 300 288 284 283 285 291 289 282 276 271 266 263 260 257
288 295 299 302 305 310 311 314 317 317 315 311 307 305 296 298 299 302 305 313 316 317 314 315 315 311 310 312 316 318 318 309 294 285 287 290 288 283 281 277 270 267 265 261
282 288 292 297 297 302 306 311 316 317 312 308 304 303 306 307 311 311 311 312 314 316 315 311 311 310 308 311 314 316 317 316 307 294 291 296 293 290 286 280 268 259 258 254
280 284 284 288 292 302 307 309 314 315 312 309 302 305 306 308 306 308 310 313 317 318 318 314 312 312 311 312 313 314 316 315 309 299 294 298 296 290 296 284 277 269 261 254
280 281 283 288 292 295 299 304 312 315 312 313 308 311 307 308 310 317 319 324 323 321 319 319 318 317 315 315 313 313 314 309 306 300 294 297 297 295 297 293 283 274 264 253
273 279 283 287 290 293 298 303 307 310 306 309 307 311 310 314 320 322 319 322 324 323 323 323 319 319 319 317 315 310 308 309 306 299 296 296 297 300 297 293 290 280 252 231
272 276 280 284 287 293 299 304 308 307 305 304 306 309 309 316 318 318 320 323 324 324 325 324 323 326 324 320 316 317 317 318 313 308 305 300 291 293 291 292 282 260 223 210
271 274 277 280 282 287 293 299 302 305 302 299 304 305 308 312 318 317 322 324 330 330 327 324 327 328 328 324 324 323 323 322 313 310 312 309 294 253 252 264 213 200 185 185
266 269 273 274 275 276 288 294 300 305 307 303 299 298 302 306 311 313 319 327 332 336 335 333 333 332 332 330 332 330 333 331 323 325 325 327 287 176 183 163 157 159 145 152
262 265 267 270 269 275 279 290 294 302 303 307 296 293 297 300 304 307 315 324 332 340 337 338 337 335 335 336 336 336 325 336 314 312 317 216 162 183 173 158 165 149 159 168
261 261 261 262 267 271 279 288 292 300 308 306 301 299 297 295 297 303 314 324 331 340 337 339 339 337 338 338 336 337 329 332 6 346 298 162 164 176 184 174 171 168 171 166
259 254 254 257 263 270 277 279 288 298 303 303 296 291 289 289 292 299 312 321 330 336 338 338 339 339 340 340 340 335 335 348 354 14 89 137 133 175 175 182 176 171 166 158
257 252 254 255 264 271 276 278 282 285 292 301 298 289 289 288 289 295 305 315 327 333 337 337 340 341 343 344 348 343 355 9 10 19 50 65 114 139 133 154 158 160 157 153
253 245 246 257 262 266 272 279 284 288 294 297 295 291 288 286 286 291 301 310 322 329 335 337 340 342 348 351 356 9 45 26 12 22 68 115 101 89 144 132 137 158 158 156
257 254 252 255 260 266 273 279 283 288 293 295 292 288 288 286 290 291 297 304 318 326 332 335 340 343 352 353 359 15 16 352 8 73 129 132 131 124 164 135 142 171 174 161
257 258 260 261 260 267 273 280 284 291 293 293 289 287 290 290 292 293 294 301 316 322 329 333 338 344 352 356 6 7 15 28 70 78 110 141 152 162 170 180 174 184 162 175